FW4235 Weather Reports


time (UTC)temp
C
wind
direction
speed
KPH
gust
KPH
rain 1hr
cm
rain 24hr
cm
rain mn
cm
humidity
%
barometer
mb
20260504081507 15 43 0.0 0.0 0.00 0.00 0.00 45 1018.3
20260504081007 15 29 0.0 0.0 0.00 0.00 0.00 45 1018.4
20260504050507 11 311 0.0 0.0 0.00 0.00 0.00 64 1017.6
20260504044507 11 338 0.0 0.0 0.00 0.00 0.00 65 1017.5
20260504044007 11 340 0.0 0.0 0.00 0.00 0.00 65 1017.4
20260504043507 11 336 0.0 0.0 0.00 0.00 0.00 66 1017.4
20260504043008 11 345 0.0 0.0 0.00 0.00 0.00 66 1017.4
20260504042507 10 341 0.0 0.0 0.00 0.00 0.00 67 1017.4
20260504042007 10 323 0.0 0.0 0.00 0.00 0.00 68 1017.4
20260504041007 10 323 0.0 0.0 0.00 0.00 0.00 68 1017.4
20260504040507 9 304 0.0 0.0 0.00 0.00 0.00 69 1017.4
20260504035008 9 355 0.0 0.0 0.00 0.00 0.00 67 1017.3
20260504034507 9 355 0.0 0.0 0.00 0.00 0.00 67 1017.2
20260504034008 9 354 0.0 0.0 0.00 0.00 0.00 67 1017.2
20260504033508 9 318 0.0 0.0 0.00 0.00 0.00 66 1017.1
20260504033007 10 296 0.0 0.0 0.00 0.00 0.00 66 1017.2
20260504032507 10 300 0.0 0.0 0.00 0.00 0.00 66 1017.1
20260504032007 10 346 0.0 0.0 0.00 0.00 0.00 66 1017.1
20260504031507 10 351 0.0 0.0 0.00 0.00 0.00 66 1017.1
20260504031007 10 347 0.0 0.0 0.00 0.00 0.00 67 1017.1
20260504030507 10 337 0.0 0.0 0.00 0.00 0.00 67 1017.1
20260504030007 10 312 0.0 0.0 0.00 0.00 0.00 67 1017.2
20260504025508 9 310 0.0 0.0 0.00 0.00 0.00 67 1017.2
20260504025008 9 309 0.0 0.0 0.00 0.00 0.00 67 1017.2
20260504024008 10 320 0.0 0.0 0.00 0.00 0.00 66 1017.1
20260504023008 10 326 0.0 0.0 0.00 0.00 0.00 65 1017.1
20260504022507 10 333 0.0 0.0 0.00 0.00 0.00 65 1017.1
20260504021007 10 349 0.0 0.0 0.00 0.00 0.00 66 1017.2
20260504020508 10 323 0.0 0.0 0.00 0.00 0.00 67 1017.3
20260504015507 9 352 0.0 0.0 0.00 0.00 0.00 68 1017.2
20260504015007 9 340 0.0 0.0 0.00 0.00 0.00 68 1017.2
20260504014507 8 317 0.0 0.0 0.00 0.00 0.00 68 1017.2
20260504013507 8 309 0.0 0.0 0.00 0.00 0.00 67 1017.3
20260504013007 9 316 0.0 0.0 0.00 0.00 0.00 67 1017.2
20260504012508 9 318 0.0 0.0 0.00 0.00 0.00 67 1017.2
20260504011507 9 306 0.0 0.0 0.00 0.00 0.00 66 1017.1
20260504011007 9 297 0.0 0.0 0.00 0.00 0.00 66 1017.2
20260504010507 9 290 0.0 0.0 0.00 0.00 0.00 66 1017.2
20260504010007 9 296 0.0 0.0 0.00 0.00 0.00 66 1017.2
20260504005507 9 297 0.0 0.0 0.00 0.00 0.00 66 1017.1
20260504004507 9 298 0.0 0.0 0.00 0.00 0.00 66 1017.2
20260504004008 9 296 0.0 0.0 0.00 0.00 0.00 66 1017.2
20260504003507 8 297 0.0 0.0 0.00 0.00 0.00 67 1017.2
20260504003007 8 293 0.0 0.0 0.00 0.00 0.00 67 1017.2
20260504002507 8 290 0.0 0.0 0.00 0.00 0.00 68 1017.1
20260504002007 8 295 0.0 0.0 0.00 0.00 0.00 68 1017.2
20260504001507 8 314 0.0 0.0 0.00 0.00 0.00 68 1017.1
20260504001007 8 312 0.0 0.0 0.00 0.00 0.00 67 1017.1
20260504000507 8 304 0.0 0.0 0.00 0.00 0.00 68 1017.1
20260504000007 8 295 0.0 0.0 0.00 0.00 0.00 68 1017.2
20260503235507 8 300 0.0 0.0 0.00 0.00 0.00 68 1017.3
20260503235007 8 296 0.0 0.0 0.00 0.00 0.00 67 1017.3
20260503234507 8 297 0.0 0.0 0.00 0.00 0.00 67 1017.3
20260503234007 8 317 0.0 0.0 0.00 0.00 0.00 67 1017.2
20260503232507 8 326 0.0 0.0 0.00 0.00 0.00 65 1017.2
20260503232008 9 340 0.0 0.0 0.00 0.00 0.00 65 1017.2
20260503231507 9 343 0.0 0.0 0.00 0.00 0.00 65 1017.1
20260503231007 9 339 0.0 0.0 0.00 0.00 0.00 65 1017.1
20260503230508 9 346 0.0 0.0 0.00 0.00 0.00 66 1017.1
20260503225008 9 335 0.0 0.0 0.00 0.00 0.00 66 1017.2
20260503224507 9 346 0.0 0.0 0.00 0.00 0.00 66 1017.2
20260503224007 9 344 0.0 0.0 0.00 0.00 0.00 67 1017.2
20260503223508 8 343 0.0 0.0 0.00 0.00 0.00 67 1017.1
20260503223008 8 337 0.0 0.0 0.00 0.00 0.00 68 1017.1
20260503222007 8 327 0.0 0.0 0.00 0.00 0.00 68 1017.3
20260503221507 8 322 0.0 0.0 0.00 0.00 0.00 68 1017.3
20260503221007 8 329 0.0 0.0 0.00 0.00 0.00 68 1017.3
20260503220507 8 327 0.0 0.0 0.00 0.00 0.00 68 1017.4
20260503220007 8 329 0.0 0.0 0.00 0.00 0.00 68 1017.4
20260503215509 8 326 0.0 0.0 0.00 0.00 0.00 68 1017.4
20260503215007 8 330 0.0 0.0 0.00 0.00 0.00 67 1017.4
20260503214507 8 333 0.0 0.0 0.00 0.00 0.00 67 1017.5
20260503214007 9 333 0.0 0.0 0.00 0.00 0.00 67 1017.5
20260503213008 9 327 0.0 0.0 0.00 0.00 0.00 66 1017.5
20260503212007 9 325 0.0 0.0 0.00 0.00 0.00 65 1017.5
20260503211507 9 316 0.0 0.0 0.00 0.00 0.00 65 1017.4
20260503210507 10 307 0.0 0.0 0.00 0.00 0.00 65 1017.4
20260503210007 10 308 0.0 0.0 0.00 0.00 0.00 64 1017.5
20260503205508 10 318 0.0 0.0 0.00 0.00 0.00 64 1017.5
20260503205008 10 318 0.0 0.0 0.00 0.00 0.00 64 1017.5
20260503204007 10 335 0.0 0.0 0.00 0.00 0.00 64 1017.4
20260503203507 10 337 0.0 0.0 0.00 0.00 0.00 64 1017.5
20260503203007 10 306 0.0 0.0 0.00 0.00 0.00 64 1017.5
20260503202007 10 308 0.0 0.0 0.00 0.00 0.00 64 1017.6
20260503201507 10 290 0.0 0.0 0.00 0.00 0.00 64 1017.7
20260503201008 10 297 0.0 0.0 0.00 0.00 0.00 64 1017.6
20260503200507 10 315 0.0 0.0 0.00 0.00 0.00 64 1017.6
20260503195507 10 335 0.0 0.0 0.00 0.00 0.00 63 1017.6
20260503195007 10 340 0.0 0.0 0.00 0.00 0.00 62 1017.6
20260503194507 10 312 0.0 0.0 0.00 0.00 0.00 62 1017.6
20260503194008 10 344 0.0 0.0 0.00 0.00 0.00 62 1017.6
20260503193007 10 314 0.0 0.0 0.00 0.00 0.00 61 1017.5
20260503192507 10 305 0.0 0.0 0.00 0.00 0.00 61 1017.6
20260503192007 10 317 0.0 0.0 0.00 0.00 0.00 61 1017.6
20260503191507 10 295 0.0 0.0 0.00 0.00 0.00 61 1017.6
20260503191008 10 309 0.0 0.0 0.00 0.00 0.00 61 1017.5
20260503190507 10 307 0.0 0.0 0.00 0.00 0.00 61 1017.5
20260503190007 10 348 0.0 0.0 0.00 0.00 0.00 61 1017.5
20260503185007 10 342 0.0 0.0 0.00 0.00 0.00 62 1017.4
20260503184507 10 310 0.0 0.0 0.00 0.00 0.00 62 1017.3
20260503183507 10 317 0.0 0.0 0.00 0.00 0.00 62 1017.2
20260503183008 10 340 0.0 0.0 0.00 0.00 0.00 62 1017.1
20260503182507 10 337 0.0 0.0 0.00 0.00 0.00 62 1017.0
20260503181507 10 336 0.0 0.0 0.00 0.00 0.00 61 1016.9
20260503181007 10 346 0.0 0.0 0.00 0.00 0.00 61 1016.9
20260503180007 11 342 0.0 0.0 0.00 0.00 0.00 61 1016.7
20260503175507 11 1 0.0 0.0 0.00 0.00 0.00 61 1016.6
20260503174507 11 1 0.0 0.0 0.00 0.00 0.00 61 1016.6
20260503174007 11 8 0.0 0.0 0.00 0.00 0.00 61 1016.6
20260503173507 11 258 0.0 0.0 0.00 0.00 0.00 61 1016.5
20260503173007 11 353 0.0 0.0 0.00 0.00 0.00 61 1016.4
20260503172507 11 340 0.0 0.0 0.00 0.00 0.00 60 1016.4
20260503172007 11 32 0.0 0.0 0.00 0.00 0.00 60 1016.4
20260503171507 11 329 0.0 0.0 0.00 0.00 0.00 60 1016.3
20260503151007 12 26 0.0 0.0 0.00 0.00 0.00 57 1015.3
20260503150507 12 52 0.0 0.0 0.00 0.00 0.00 58 1015.3
20260503130507 12 19 0.0 0.0 0.00 0.00 0.00 57 1015.1
20260503110507 10 2 0.0 0.0 0.00 0.00 0.00 72 1015.9